Location: Kerb�bon
(47.7970°N, 3.3487°W)
Time: 12:36:30
(UTC+00:00)

Cosmos 44 - Pass Details

Date: 12 May 2021
Orbit: 571 x 791 km, 65.1° (Epoch: 18 June)

Event Time Altitude Azimuth Distance (km) Brightness Sun altitude
Rises 22:18:11 0° 322° (NW) 3,297 8.3 -19.3°
Reaches altitude 10° 22:20:38 10° 323° (NW) 2,359 7.2 -19.5°
Maximum altitude 22:26:07 87° 52° (NE) 781 3.5 -19.9°
Enters shadow 22:28:03 41° 141° (SE) 1,106 3.8 -20.0°
